Regional Weather Roundup
Issued by NWS

Home | Current Version | Previous Version | Graphics & Text | Print | Product List | Glossary On
Versions: 1 2 3 4 5 6 7 8 9 10 11 12 13 14 15 16 17 18 19 20 21 22 23 24 25 26 27 28 29 30 31 32 33 34 35 36 37 38 39 40 41 42 43 44 45 46 47 48 49 50
340
ASUS43 KLSX 080710
RWRMO

WEATHER SUMMARY FOR MISSOURI
NATIONAL WEATHER SERVICE SPRINGFIELD MO
100 AM CST THU DEC 08 2016

NOTE: "FAIR" INDICATES FEW OR NO CLOUDS BELOW 12,000 FEET WITH NO
       SIGNIFICANT WEATHER AND/OR OBSTRUCTIONS TO VISIBILITY.
       CURRENT SKY AND/OR WEATHER CONDITIONS ARE NOT AVAILABLE FOR
       CHILLICOTHE AND FARMINGTON.

MOZ001>031-035>038-043-044-053-054-080800-
...NORTHERN AND WESTERN MISSOURI...

CITY           SKY/WX    TMP DP  RH WIND       PRES   REMARKS
KANSAS CTY INT CLEAR     19   7  59 NW10      30.46S WCI   7
KANSAS C DTWN  CLEAR     21   8  57 NW7       30.49S WCI  12
LEE`S SUMMIT   CLEAR     20   9  62 NW12      30.47S WCI   8
ST JOSEPH      CLEAR     19   7  59 NW10      30.48F WCI   7
CHILLICOTHE      N/A     20   9  62 W5        30.44F WCI  13
KIRKSVILLE     CLEAR     18   9  68 W10       30.38R WCI   6

$$
MOZ066>068-077>081-088>096-101>105-080800-
...SOUTHWEST MISSOURI...

CITY           SKY/WX    TMP DP  RH WIND       PRES   REMARKS
SPRINGFIELD    CLEAR     22  17  81 NW12      30.44R WCI  10
JOPLIN         PTCLDY    20  17  88 N6        30.51R WCI  12
BRANSON        CLOUDY    28  23  80 NW14      30.42S WCI  17

$$
MOZ032>034-039>042-045>050-055>058-069>072-080800-
...CENTRAL MISSOURI...

CITY           SKY/WX    TMP DP  RH WIND       PRES   REMARKS
COLUMBIA       CLEAR     21  11  65 W9        30.41S WCI  11
JEFFERSON CITY CLEAR     22  12  65 W7        30.45S WCI  13
ROLLA          CLEAR     21  13  71 NW10      30.39R WCI  10
SEDALIA        CLEAR     21  12  68 W9        30.45F WCI  11
WHITEMAN AFB   CLEAR     20  13  74 W8        30.45F WCI  11
WARRENSBURG    PTCLDY    19  10  68 W5        30.47S WCI  13
OSAGE BEACH    CLEAR     22  12  65 NW7       30.45S WCI  13

$$
MOZ051-052-059>065-080800-
...EAST CENTRAL MISSOURI...

CITY           SKY/WX    TMP DP  RH WIND       PRES   REMARKS
ST LOUIS INTL  PTCLDY    26  12  55 NW12      30.38R WCI  16
SPIRIT OF STL  CLEAR     25  14  63 W14       30.40R WCI  13
ST CHARLES     CLEAR     25  13  60 NW15      30.38R WCI  13

$$
MOZ072>076-082>087-097>100-106>115-080800-
...SOUTH CENTRAL AND SOUTHEAST MISSOURI...

CITY           SKY/WX    TMP DP  RH WIND       PRES   REMARKS
CAPE GIRARDEAU CLOUDY    34  22  61 NW9       30.34R WCI  27
FARMINGTON     PTCLDY    27  20  75 W8        30.36R WCI  19
POPLAR BLUFF   CLOUDY    35  25  66 NW13      30.35R WCI  26
WEST PLAINS    CLOUDY    29  23  78 NW13      30.38R WCI  19

$$




USA.gov is the U.S. government's official web portal to all federal, state and local government web resources and services.